Regional Weather Roundup
Issued by NWS

Home | Current Version | Previous Version | Text Only | Print | Product List | Glossary On
Versions: 1 2 3 4 5 6 7 8 9 10 11 12 13 14 15 16 17 18 19 20 21 22 23 24 25 26 27 28 29 30 31 32 33 34 35 36 37 38 39 40 41 42 43 44 45 46 47 48 49 50
000
ASUS43 KTOP 231408
RWRKS

WEATHER ROUNDUP FOR KANSAS
NATIONAL WEATHER SERVICE GOODLAND KS
900 AM CDT THU MAR 23 2017

NOTE:  "FAIR" INDICATES FEW OR NO CLOUDS BELOW 12,000 FEET WITH NO
SIGNIFICANT WEATHER AND/OR OBSTRUCTIONS TO VISIBILITY.

KSZ001>006-013>018-027>032-041>047-231500-
NORTHWEST KANSAS

CITY           SKY/WX    TMP DP  RH WIND       PRES   REMARKS
GOODLAND       SUNNY     48  47  96 S18       29.71F FOG
HAYS             N/A     56  53  90 S16       29.81F
HILL CITY      FOG       54  54 100 SE9G18    29.78F VSB 1
RUSSELL        CLOUDY    57  53  86 S24G31    29.81F
$$

KSZ061>065-074>080-084>089-231500-
SOUTHWEST KANSAS

CITY           SKY/WX    TMP DP  RH WIND       PRES   REMARKS
DODGE CITY     CLOUDY    59  56  89 S22       29.82F FOG
ELKHART          N/A     52  44  74 S15         N/A
GARDEN CITY    CLOUDY    58  55  90 S16       29.78F
GREAT BEND     CLOUDY    57  55  93 S23G29    29.84F FOG
LIBERAL        SUNNY     55  52  88 S14       29.82S
PRATT          CLOUDY    53  52  96 SE22      29.87F FOG
$$

KSZ066>073-081>083-090>101-231500-
SOUTHEAST KANSAS

CITY           SKY/WX    TMP DP  RH WIND       PRES   REMARKS
CHANUTE        SUNNY     58  44  60 S16G24    30.05S
COFFEYVILLE    SUNNY     58  44  60 S13G22    30.07R
HUTCHINSON     CLOUDY    57  51  80 S21G29    29.91S
MEDICINE LODGE   N/A     55  51  86 SE10      29.89F
NEWTON         PTSUNNY   55  48  76 S23G31    29.93F
PARSONS        SUNNY     58  45  62 SE10G18   30.06F
WICHITA INTL   MOSUNNY   56  49  77 S22G29    29.94S
WICHITA JABRA  PTSUNNY   55  48  77 S17G28    29.94F
WICHITA MCCONL MOSUNNY   55  47  75 S23       29.95R
WINFIELD       SUNNY     56  47  71 SE21G32   29.99S
$$

KSZ007>012-019>026-033>040-048>060-102>105-231500-
NORTHEAST KANSAS

CITY           SKY/WX    TMP DP  RH WIND       PRES   REMARKS
CONCORDIA      CLOUDY    53  46  77 SE18      29.89F
EMPORIA        SUNNY     56  47  71 S21G30    29.99S
LAWRENCE       CLOUDY    54  36  50 SE14      30.04F
MANHATTAN      CLOUDY    55  46  71 VRB5      29.96F
MARYSVILLE     CLOUDY    52  37  58 SE17G25   29.95S
OLATHE IND     CLOUDY    53  35  50 SE17      30.05F
OLATHE EXE     CLOUDY    51  36  56 SE15      30.06S
SALINA         CLOUDY    59  50  72 S24G33    29.90S
TOPEKA BILLARD PTSUNNY   55  40  56 SE18G24   30.01F
TOPEKA FORBES  CLOUDY    56  39  53 SE17      30.01S
$$



USA.gov is the U.S. government's official web portal to all federal, state and local government web resources and services.